Weather History for KIMT - February, 2013

Change the Weather History Date:

Wednesday, February 27, 2013

  Actual Average Record
Temperature  
Mean Temperature 30 °F -  
Max Temperature 32 °F 35 °F 54 °F (1976)
Min Temperature 28 °F 11 °F -20 °F (2014)
Degree Days  
Heating Degree Days 35    
Moisture  
Dew Point 26 °F    
Average Humidity 84    
Maximum Humidity 93    
Minimum Humidity 74    
Precipitation  
Precipitation 0.00 in - - ()
Sea Level Pressure  
Sea Level Pressure 29.77 in    
Wind  
Wind Speed 13 mph (North)    
Max Wind Speed 17 mph    
Max Gust Speed 25 mph    
Visibility 4 miles    
Events Snow    
Averages and records for this station are not official NWS values.
T = Trace of Precipitation, MM = Missing Value Source: NWS Daily Summary

Daily Weather History Graph

Daily Weather History Graph

Search for Another Location

Airport or City:

Trip Planner

Search our weather history database for the weather conditions in past years. The results will help you decide how hot, cold, wet, or windy it might be!

Date:

Astronomy

Feb. 27, 2013 Rise Set
Actual Time 6:34 AM CST 5:36 PM CST
Civil Twilight 6:04 AM CST 6:06 PM CST
Nautical Twilight 5:29 AM CST 6:41 PM CST
Astronomical Twilight 4:55 AM CST 7:15 PM CST
Moon 8:08 PM CST 7:00 AM CST
Length of Visible Light 12h 02m
Length of Day
11h 02m
Waning Gibbous, 96% of the Moon is Illuminated
Feb 27
Waning Gibbous
Mar 4
Last Quarter
Mar 11
New
Mar 19
First Quarter
Mar 27
Full

Hourly Weather History & Observations

Time (CST) Temp. Windchill Dew Point Humidity Pressure Visibility Wind Dir Wind Speed Gust Speed Precip Events Conditions
12:54 AM 28.0 °F 17.0 °F 21.9 °F 78% 29.85 in 10.0 mi North 13.8 mph 20.7 mph N/A   Scattered Clouds
1:54 AM 28.0 °F 16.5 °F 21.9 °F 78% 29.83 in 10.0 mi North 15.0 mph 20.7 mph N/A   Mostly Cloudy
2:17 AM 28.4 °F 18.0 °F 21.2 °F 74% 29.77 in 10.0 mi NNE 12.7 mph 21.9 mph N/A   Overcast
2:54 AM 28.9 °F 19.2 °F 23.0 °F 78% 29.80 in 10.0 mi North 11.5 mph - N/A   Overcast
3:42 AM 28.4 °F 18.0 °F 23.0 °F 80% 29.76 in 10.0 mi North 12.7 mph 21.9 mph N/A   Overcast
3:54 AM 28.9 °F 18.2 °F 24.1 °F 82% 29.80 in 10.0 mi North 13.8 mph - N/A   Overcast
4:54 AM 28.9 °F 17.3 °F 24.1 °F 82% 29.80 in 10.0 mi NNE 16.1 mph 23.0 mph N/A   Overcast
5:54 AM 28.9 °F 17.7 °F 24.1 °F 82% 29.79 in 9.0 mi NNE 15.0 mph 24.2 mph N/A   Overcast
6:17 AM 28.4 °F 17.5 °F 24.8 °F 86% 29.74 in 1.8 mi North 13.8 mph 25.3 mph 0.00 in Snow Light Snow
6:54 AM 28.9 °F 17.7 °F 26.1 °F 89% 29.79 in 1.0 mi North 15.0 mph - 0.00 in Snow Light Snow
6:56 AM 28.4 °F 18.0 °F 26.6 °F 93% 29.74 in 0.8 mi North 12.7 mph - 0.00 in Snow Light Snow
7:12 AM 28.4 °F 17.5 °F 26.6 °F 93% 29.74 in 0.8 mi North 13.8 mph 20.7 mph 0.00 in Snow Light Snow
7:15 AM 28.4 °F 17.5 °F 26.6 °F 93% 29.74 in 1.0 mi North 13.8 mph - 0.00 in Snow Light Snow
7:45 AM 28.4 °F 19.1 °F 26.6 °F 93% 29.74 in 0.8 mi North 10.4 mph - 0.00 in Snow Light Snow
7:54 AM 28.9 °F 19.2 °F 26.1 °F 89% 29.79 in 0.8 mi NNE 11.5 mph 18.4 mph 0.00 in Snow Light Snow
8:03 AM 28.4 °F 18.5 °F 26.6 °F 93% 29.74 in 0.8 mi North 11.5 mph - 0.00 in Snow Light Snow
8:32 AM 28.4 °F 19.1 °F 26.6 °F 93% 29.74 in 1.0 mi North 10.4 mph - 0.00 in Snow Light Snow
8:39 AM 28.4 °F 18.0 °F 26.6 °F 93% 29.74 in 1.2 mi North 12.7 mph - 0.00 in Snow Light Snow
8:50 AM 30.2 °F 21.3 °F 26.6 °F 86% 29.74 in 2.0 mi North 10.4 mph - 0.00 in Snow Light Snow
8:54 AM 30.0 °F 20.0 °F 26.1 °F 85% 29.78 in 2.5 mi North 12.7 mph - 0.00 in Snow Light Snow
9:14 AM 30.2 °F 18.9 °F 26.6 °F 86% 29.73 in 1.5 mi North 16.1 mph 21.9 mph 0.00 in Snow Light Snow
9:52 AM 30.2 °F 21.3 °F 26.6 °F 86% 29.73 in 2.5 mi North 10.4 mph - 0.00 in Snow Light Snow
9:54 AM 30.0 °F 20.5 °F 26.1 °F 85% 29.78 in 3.0 mi North 11.5 mph - 0.00 in Snow Light Snow
10:03 AM 30.2 °F 19.8 °F 26.6 °F 86% 29.73 in 1.8 mi North 13.8 mph - 0.00 in Snow Light Snow
10:22 AM 30.2 °F 20.2 °F 26.6 °F 86% 29.72 in 3.0 mi NNE 12.7 mph 20.7 mph 0.00 in Snow Light Snow
10:30 AM 30.2 °F 19.3 °F 26.6 °F 86% 29.72 in 5.0 mi North 15.0 mph 21.9 mph 0.00 in Snow Light Snow
10:54 AM 30.9 °F 19.4 °F 26.1 °F 82% 29.78 in 4.0 mi NNE 17.3 mph 20.7 mph 0.00 in Snow Light Snow
11:54 AM 30.9 °F 21.2 °F 26.1 °F 82% 29.78 in 6.0 mi North 12.7 mph 20.7 mph 0.00 in   Haze
12:42 PM 32.0 °F 21.6 °F 26.6 °F 80% 29.72 in 7.0 mi North 15.0 mph 23.0 mph 0.00 in Snow Light Snow
12:54 PM 32.0 °F 22.1 °F 26.1 °F 79% 29.77 in 7.0 mi North 13.8 mph 21.9 mph 0.00 in Snow Light Snow
1:35 PM 32.0 °F 22.1 °F 26.6 °F 80% 29.72 in 1.8 mi North 13.8 mph 23.0 mph 0.00 in Snow Light Snow
1:54 PM 32.0 °F 23.6 °F 27.0 °F 82% 29.77 in 1.0 mi North 10.4 mph - 0.00 in Snow Light Snow
2:54 PM 32.0 °F 22.5 °F 28.0 °F 85% 29.77 in 1.5 mi North 12.7 mph 19.6 mph 0.00 in Snow Light Snow
2:59 PM 30.2 °F 20.2 °F 26.6 °F 86% 29.73 in 1.8 mi North 12.7 mph - 0.00 in Snow Light Snow
3:14 PM 32.0 °F 24.2 °F 28.4 °F 87% 29.73 in 1.5 mi North 9.2 mph - 0.00 in Snow Light Snow
3:42 PM 32.0 °F 23.0 °F 28.4 °F 87% 29.73 in 2.0 mi North 11.5 mph - 0.00 in Snow Light Snow
3:54 PM 32.0 °F 22.1 °F 27.0 °F 82% 29.78 in 2.0 mi NNE 13.8 mph 21.9 mph 0.00 in Snow Light Snow
4:09 PM 32.0 °F 24.2 °F 26.6 °F 80% 29.73 in 1.5 mi NNE 9.2 mph 19.6 mph 0.00 in Snow Light Snow
4:21 PM 32.0 °F 22.5 °F 26.6 °F 80% 29.74 in 2.0 mi North 12.7 mph 20.7 mph 0.00 in Snow Light Snow
4:31 PM 32.0 °F 21.6 °F 28.4 °F 87% 29.74 in 1.5 mi North 15.0 mph - 0.00 in Snow Light Snow
4:36 PM 32.0 °F 23.6 °F 26.6 °F 80% 29.74 in 2.0 mi NNE 10.4 mph 21.9 mph 0.00 in Snow Light Snow
4:50 PM 32.0 °F 23.0 °F 26.6 °F 80% 29.75 in 3.0 mi North 11.5 mph - 0.00 in Snow Light Snow
4:54 PM 32.0 °F 21.6 °F 27.0 °F 82% 29.80 in 3.0 mi North 15.0 mph 19.6 mph 0.00 in Snow Light Snow
5:54 PM 32.0 °F 21.2 °F 26.1 °F 79% 29.82 in 10.0 mi North 16.1 mph 23.0 mph 0.00 in   Overcast
6:54 PM 30.9 °F 21.2 °F 28.0 °F 89% 29.84 in 5.0 mi North 12.7 mph - 0.00 in Snow Light Snow
7:54 PM 32.0 °F 22.1 °F 27.0 °F 82% 29.84 in 8.0 mi North 13.8 mph - 0.00 in Snow Light Snow
8:38 PM 30.2 °F 21.9 °F 26.6 °F 86% 29.81 in 2.0 mi North 9.2 mph - 0.00 in Snow Light Snow
8:54 PM 30.9 °F 21.7 °F 27.0 °F 85% 29.86 in 3.0 mi North 11.5 mph - 0.00 in Snow Light Snow
9:54 PM 30.9 °F 22.8 °F 28.0 °F 89% 29.86 in 4.0 mi North 9.2 mph - 0.00 in Snow Light Snow
10:54 PM 30.9 °F 19.8 °F 26.1 °F 82% 29.86 in 9.0 mi North 16.1 mph - 0.00 in   Overcast
11:54 PM 30.9 °F 20.7 °F 25.0 °F 79% 29.86 in 10.0 mi North 13.8 mph 25.3 mph 0.00 in   Overcast